QPF
0.00 0.00 0.00 0.00 0.00 0.00 0.00 0.00 0.00 0.00 0.00 0.00 0.00 0.00 0.00 0.00 0.00 0.00 0.00 0.00 0.00 0.00 0.00 0.00 0.00 0.00 0.00 0.00 0.00 0.00 0.00 0.00
0.00 0.00 0.00 0.00 0.00 0.00 0.00 0.00 0.00 0.00 0.00 0.00 0.00 0.00 0.00 0.00 0.00 0.00 0.00 0.00 0.00 0.01 0.00 0.00 0.00 0.00 0.00 0.00 0.00 0.00 0.00 0.00
0.00 0.00 0.00 0.00 0.00 0.00 0.00 0.00 0.00 0.00 0.00 0.00 0.00 0.00 0.00 0.00 0.00 0.00 0.00 0.00 0.00 0.00 0.00 0.00 0.00 0.01 0.01 0.02 0.01 0.01 0.01 0.01
0.00 0.00 0.00 0.00 0.00 0.00 0.00 0.00 0.00 0.00 0.00 0.00 0.00 0.00 0.00 0.00 0.00 0.00 0.00 0.00 0.00 0.01 0.01 0.01 0.01 0.01 0.02 0.02 0.02 0.04 0.03 0.05
0.00 0.00 0.00 0.00 0.00 0.00 0.00 0.00 0.00 0.00 0.00 0.00 0.00 0.00 0.00 0.00 0.00 0.00 0.00 0.00 0.00 0.01 0.01 0.01 0.02 0.02 0.11 0.14 0.10 0.09 0.13 0.11
0.00 0.00 0.00 0.00 0.00 0.00 0.00 0.00 0.00 0.00 0.00 0.00 0.00 0.00 0.00 0.00 0.00 0.00 0.00 0.01 0.01 0.01 0.02 0.05 0.11 0.05 0.02 0.09 0.15 0.14 0.15 0.16
0.00 0.00 0.00 0.00 0.00 0.00 0.00 0.00 0.00 0.00 0.00 0.00 0.00 0.00 0.00 0.01 0.01 0.01 0.02 0.02 0.03 0.05 0.10 0.12 0.12 0.08 0.03 0.03 0.03 0.03 0.02 0.03
0.00 0.00 0.00 0.00 0.00 0.00 0.00 0.00 0.00 0.01 0.01 0.01 0.01 0.02 0.04 0.07 0.07 0.09 0.11 0.11 0.08 0.20 0.21 0.26 0.30 0.38 0.40 0.22 0.04 0.02 0.02 0.02
0.00 0.00 0.00 0.00 0.00 0.00 0.01 0.01 0.01 0.00 0.01 0.03 0.05 0.03 0.05 0.09 0.08 0.10 0.14 0.14 0.16 0.23 0.24 0.22 0.43 0.59 0.57 0.45 0.05 0.02 0.02 0.02
0.00 0.00 0.00 0.00 0.00 0.01 0.02 0.03 0.02 0.02 0.02 0.02 0.04 0.09 0.13 0.11 0.10 0.06 0.07 0.06 0.05 0.06 0.10 0.08 0.11 0.22 0.18 0.15 0.15 0.10 0.06 0.02
0.00 0.00 0.00 0.00 0.00 0.01 0.02 0.03 0.05 0.04 0.05 0.05 0.06 0.07 0.08 0.09 0.12 0.07 0.05 0.05 0.04 0.02 0.03 0.03 0.04 0.02 0.03 0.06 0.09 0.11 0.11 0.06
0.00 0.00 0.00 0.00 0.00 0.02 0.03 0.04 0.06 0.06 0.10 0.14 0.13 0.12 0.10 0.06 0.05 0.04 0.02 0.02 0.02 0.01 0.01 0.00 0.00 0.00 0.02 0.04 0.03 0.04 0.08 0.08
0.00 0.00 0.00 0.00 0.00 0.01 0.03 0.05 0.07 0.07 0.15 0.21 0.21 0.19 0.12 0.08 0.03 0.02 0.01 0.01 0.00 0.00 0.00 0.00 0.00 0.00 0.00 0.01 0.03 0.03 0.03 0.03
0.00 0.00 0.00 0.00 0.00 0.01 0.02 0.06 0.09 0.09 0.10 0.28 0.30 0.35 0.21 0.05 0.01 0.01 0.00 0.00 0.00 0.00 0.00 0.00 0.00 0.00 0.00 0.00 0.00 0.01 0.02 0.03
0.00 0.00 0.00 0.00 0.00 0.00 0.01 0.05 0.13 0.14 0.11 0.09 0.14 0.23 0.35 0.26 0.06 0.00 0.00 0.00 0.00 0.00 0.00 0.00 0.00 0.00 0.00 0.00 0.00 0.00 0.00 0.00
0.00 0.00 0.00 0.00 0.00 0.00 0.00 0.02 0.07 0.11 0.07 0.05 0.02 0.03 0.04 0.06 0.14 0.07 0.03 0.01 0.00 0.00 0.00 0.00 0.00 0.00 0.00 0.00 0.00 0.00 0.00 0.00
0.00 0.00 0.00 0.00 0.00 0.00 0.00 0.00 0.02 0.02 0.02 0.00 0.00 0.00 0.00 0.00 0.00 0.00 0.01 0.01 0.00 0.00 0.00 0.00 0.00 0.00 0.00 0.00 0.00 0.00 0.00 0.00
0.00 0.00 0.00 0.00 0.00 0.00 0.00 0.00 0.00 0.00 0.00 0.00 0.00 0.00 0.00 0.00 0.00 0.00 0.00 0.00 0.00 0.00 0.00 0.00 0.00 0.00 0.00 0.00 0.00 0.00 0.00 0.00
0.00 0.00 0.00 0.00 0.00 0.00 0.00 0.00 0.00 0.00 0.00 0.00 0.00 0.00 0.00 0.00 0.00 0.00 0.00 0.00 0.00 0.00 0.00 0.00 0.00 0.00 0.00 0.00 0.00 0.00 0.00 0.00
MSLP
1009.85 1010.04 1010.34 1010.16 1009.97 1009.75 1009.25 1008.86 1008.40 1007.73 1007.29 1006.73 1006.82 1006.87 1007.01 1006.68 1006.46 1006.67 1007.08 1007.79 1008.88 1009.45 1009.56 1009.26 1009.69 1009.88 1010.59 1011.06 1011.27 1011.60 1012.04 1012.32
1011.07 1011.06 1011.58 1011.82 1011.73 1011.02 1010.43 1009.58 1008.98 1008.17 1007.19 1006.72 1006.17 1006.10 1005.94 1005.89 1005.98 1006.06 1006.28 1006.55 1007.90 1008.89 1009.02 1009.00 1009.29 1009.60 1010.10 1010.61 1011.07 1011.49 1011.80 1012.31
1012.00 1012.45 1013.04 1013.35 1013.04 1012.77 1012.08 1011.15 1009.40 1008.67 1007.63 1006.36 1005.70 1005.04 1004.78 1004.79 1005.00 1005.23 1005.59 1005.93 1006.54 1007.38 1008.25 1008.32 1008.50 1009.20 1009.72 1010.08 1010.69 1011.31 1011.66 1012.08
1013.58 1014.02 1014.13 1014.15 1014.00 1013.90 1013.55 1012.67 1011.15 1009.07 1007.99 1006.83 1005.63 1004.96 1004.33 1004.16 1004.16 1004.28 1004.51 1004.96 1005.48 1006.31 1007.23 1007.55 1007.77 1008.18 1008.60 1009.42 1010.11 1010.83 1011.56 1012.25
1015.63 1015.46 1015.29 1015.04 1015.06 1015.05 1014.84 1014.09 1012.75 1010.68 1008.92 1006.71 1005.70 1004.76 1003.78 1003.16 1003.36 1003.52 1003.80 1004.13 1004.65 1005.32 1006.02 1006.57 1006.91 1007.31 1007.66 1008.10 1009.11 1009.95 1010.95 1011.59
1016.96 1016.90 1016.76 1016.32 1016.35 1015.84 1015.54 1015.06 1013.85 1012.55 1011.32 1009.31 1007.57 1005.31 1003.74 1003.34 1002.31 1002.60 1003.03 1003.61 1003.97 1004.69 1005.20 1005.68 1006.11 1006.56 1007.04 1007.76 1008.24 1009.12 1009.51 1008.53
1017.74 1017.80 1017.40 1016.86 1016.70 1016.40 1016.13 1015.49 1014.52 1013.69 1012.59 1010.89 1009.31 1007.17 1004.35 1002.81 1001.84 1001.65 1002.59 1003.24 1003.70 1004.05 1004.39 1004.97 1005.45 1005.72 1006.42 1007.29 1008.24 1008.83 1009.32 1008.73
1018.43 1018.05 1017.54 1017.04 1016.76 1016.64 1016.34 1016.00 1015.15 1014.36 1013.44 1012.08 1010.25 1008.23 1005.96 1003.41 1002.01 1001.62 1002.43 1002.83 1003.16 1003.27 1003.91 1004.35 1004.84 1005.62 1006.26 1006.71 1006.19 1007.13 1008.28 1008.85
1018.30 1018.41 1018.52 1018.18 1017.58 1017.29 1016.93 1016.61 1015.94 1014.83 1014.15 1012.88 1010.98 1009.29 1007.43 1004.66 1002.45 1002.29 1002.46 1003.11 1003.61 1003.68 1003.89 1004.57 1005.11 1005.50 1006.06 1005.27 1004.97 1007.11 1008.21 1008.59
1018.64 1018.90 1019.02 1018.83 1018.47 1018.03 1017.80 1017.09 1016.51 1015.59 1014.44 1013.71 1011.79 1010.17 1008.52 1006.86 1004.96 1003.19 1003.17 1003.50 1003.30 1003.29 1004.14 1004.67 1004.78 1005.06 1005.44 1004.71 1006.41 1006.36 1006.29 1007.67
1018.94 1019.30 1019.34 1019.20 1019.06 1018.72 1018.24 1017.57 1016.82 1016.39 1015.29 1014.44 1013.09 1010.76 1009.81 1008.32 1006.86 1004.85 1003.69 1003.84 1003.99 1003.73 1004.12 1004.51 1004.39 1004.26 1004.78 1004.99 1005.71 1005.64 1005.84 1006.36
1018.69 1019.09 1019.19 1019.47 1019.35 1019.13 1018.54 1017.93 1017.23 1016.87 1015.79 1014.85 1013.37 1011.72 1011.20 1008.84 1008.05 1006.39 1004.97 1004.67 1004.68 1004.41 1004.76 1004.30 1004.37 1004.22 1004.29 1004.62 1004.32 1005.32 1005.80 1006.27
1018.52 1018.85 1019.09 1019.69 1019.60 1019.33 1019.11 1018.50 1017.88 1017.12 1016.37 1014.69 1014.16 1013.75 1012.24 1010.45 1009.28 1007.59 1006.43 1005.92 1005.52 1005.15 1004.95 1004.17 1003.71 1003.71 1003.88 1004.77 1004.90 1005.19 1005.62 1005.77
1018.46 1018.70 1019.18 1019.38 1019.29 1019.19 1018.98 1018.78 1018.08 1017.41 1016.49 1015.12 1014.57 1013.54 1012.85 1011.88 1009.82 1008.50 1007.92 1007.21 1006.48 1005.93 1006.01 1005.06 1004.46 1004.74 1004.99 1005.11 1005.26 1005.48 1005.94 1005.72
1018.49 1018.69 1018.90 1018.98 1019.02 1018.97 1018.76 1018.50 1018.27 1017.56 1016.59 1015.36 1014.34 1013.40 1011.81 1010.83 1010.66 1009.96 1009.59 1008.48 1007.68 1007.07 1006.53 1006.04 1005.75 1005.71 1005.50 1006.21 1006.24 1006.25 1006.28 1005.64
1018.85 1018.85 1018.81 1018.63 1018.63 1018.48 1018.59 1018.37 1018.01 1017.68 1016.72 1015.52 1014.30 1013.77 1012.60 1011.64 1010.76 1010.26 1009.86 1009.65 1008.84 1007.94 1007.53 1007.05 1006.61 1006.05 1007.44 1007.53 1007.64 1007.47 1007.16 1006.11
1019.19 1019.15 1019.09 1018.85 1018.77 1018.40 1018.40 1018.36 1017.69 1017.38 1016.88 1016.10 1015.16 1014.59 1013.47 1012.99 1012.43 1011.17 1010.56 1010.54 1009.74 1008.81 1008.56 1007.84 1007.21 1007.03 1007.99 1008.85 1008.60 1008.20 1007.33 1006.56
1019.58 1019.48 1019.45 1019.20 1018.93 1018.62 1018.49 1018.20 1017.77 1017.31 1016.90 1016.42 1015.42 1014.69 1014.11 1013.68 1013.05 1012.26 1011.58 1011.13 1010.30 1009.07 1009.43 1008.60 1008.22 1008.20 1009.16 1009.32 1008.75 1007.63 1006.62 1006.35
1019.92 1019.87 1019.70 1019.40 1019.15 1018.90 1018.82 1018.18 1017.84 1017.48 1016.97 1016.45 1015.89 1015.26 1014.21 1013.39 1012.88 1012.31 1011.46 1010.56 1009.64 1009.43 1009.56 1008.77 1008.16 1008.00 1008.62 1008.68 1008.32 1007.24 1006.79 1006.53
Thickness
5651 5652 5651 5653 5655 5655 5661 5665 5668 5675 5681 5689 5689 5691 5692 5697 5702 5704 5702 5697 5690 5684 5683 5684 5681 5679 5676 5674 5669 5667 5663 5661
5631 5632 5627 5627 5629 5637 5641 5648 5652 5659 5666 5670 5677 5680 5688 5692 5694 5697 5698 5695 5689 5681 5679 5679 5677 5672 5671 5668 5664 5657 5656 5656
5611 5609 5606 5603 5605 5608 5614 5622 5638 5643 5652 5663 5670 5678 5684 5689 5691 5692 5692 5691 5690 5686 5677 5676 5675 5668 5665 5663 5658 5649 5649 5649
5588 5585 5585 5585 5587 5588 5590 5596 5610 5628 5636 5648 5658 5666 5675 5678 5682 5685 5690 5689 5688 5683 5676 5673 5672 5668 5663 5656 5651 5644 5638 5635
5560 5563 5565 5565 5566 5566 5568 5573 5584 5600 5616 5632 5641 5649 5659 5673 5674 5679 5681 5682 5681 5677 5672 5669 5667 5663 5659 5656 5648 5641 5634 5630
5534 5534 5536 5541 5539 5545 5546 5551 5561 5573 5582 5600 5616 5638 5656 5661 5671 5671 5672 5672 5673 5669 5665 5664 5659 5655 5654 5646 5643 5637 5636 5647
5511 5510 5514 5519 5520 5521 5525 5531 5538 5545 5556 5571 5586 5607 5637 5651 5662 5665 5661 5660 5659 5660 5660 5657 5652 5651 5644 5637 5627 5625 5625 5635
5488 5492 5494 5497 5499 5501 5503 5507 5517 5523 5531 5544 5561 5581 5605 5632 5647 5651 5647 5645 5648 5653 5651 5648 5644 5637 5634 5617 5623 5628 5624 5622
5477 5473 5469 5470 5473 5474 5477 5481 5489 5500 5507 5520 5539 5553 5572 5604 5628 5630 5633 5629 5631 5638 5636 5632 5627 5623 5613 5605 5631 5621 5610 5607
5458 5450 5443 5444 5447 5450 5450 5453 5454 5466 5481 5491 5510 5526 5545 5565 5586 5605 5611 5613 5622 5627 5621 5617 5611 5607 5594 5617 5612 5613 5614 5604
5437 5428 5424 5423 5422 5425 5427 5430 5432 5434 5444 5456 5474 5501 5514 5535 5553 5577 5592 5597 5602 5608 5607 5606 5607 5613 5609 5612 5607 5610 5609 5606
5428 5420 5418 5413 5411 5411 5413 5414 5416 5416 5425 5435 5451 5472 5481 5511 5528 5547 5568 5579 5583 5588 5588 5594 5596 5603 5608 5606 5608 5602 5600 5597
5422 5417 5412 5402 5401 5400 5398 5399 5400 5403 5410 5426 5434 5440 5458 5481 5496 5521 5542 5555 5562 5569 5573 5584 5591 5600 5601 5595 5595 5595 5593 5594
5416 5411 5400 5394 5394 5393 5391 5389 5390 5394 5402 5415 5420 5430 5438 5455 5472 5500 5517 5530 5542 5552 5554 5566 5575 5577 5578 5581 5582 5583 5580 5587
5410 5405 5401 5394 5391 5389 5387 5384 5380 5385 5392 5406 5417 5426 5445 5454 5467 5481 5489 5506 5520 5530 5538 5547 5554 5558 5563 5563 5564 5565 5567 5576
5400 5396 5396 5396 5392 5390 5384 5380 5378 5377 5385 5394 5410 5420 5433 5445 5456 5468 5481 5488 5500 5512 5520 5527 5536 5544 5538 5539 5542 5544 5548 5561
5390 5388 5388 5388 5385 5385 5381 5376 5378 5376 5377 5384 5398 5407 5421 5429 5436 5452 5462 5464 5475 5494 5501 5512 5521 5528 5521 5517 5523 5528 5538 5546
5380 5379 5379 5379 5378 5379 5376 5375 5376 5376 5376 5381 5393 5403 5411 5417 5427 5438 5445 5454 5467 5484 5484 5497 5503 5508 5501 5505 5513 5524 5536 5540
5372 5371 5372 5373 5372 5373 5370 5373 5374 5374 5376 5379 5385 5394 5406 5415 5423 5431 5442 5454 5465 5470 5474 5486 5495 5501 5499 5502 5508 5520 5525 5529